| time (UTC) | temp F | wind direction | speed MPH | gust MPH | rain 1hr in | rain 24hr in | rain mn in | humidity % | barometer mb |
| 20260506073501 | 64 | 207 | 4.0 | 9.0 | 0.00 | 0.00 | 0.00 | 80 | 1012.1 |
| 20260506073003 | 64 | 208 | 4.0 | 9.0 | 0.00 | 0.00 | 0.00 | 80 | 1012.2 |
| 20260506072502 | 64 | 196 | 4.0 | 9.0 | 0.00 | 0.00 | 0.00 | 80 | 1012.4 |
| 20260506072001 | 64 | 209 | 4.0 | 9.0 | 0.00 | 0.00 | 0.00 | 80 | 1012.4 |
| 20260506071503 | 64 | 244 | 5.0 | 9.0 | 0.00 | 0.00 | 0.00 | 80 | 1012.5 |
| 20260506071005 | 65 | 186 | 3.0 | 8.0 | 0.00 | 0.00 | 0.00 | 79 | 1012.5 |
| 20260506070502 | 65 | 185 | 3.0 | 8.0 | 0.00 | 0.00 | 0.00 | 79 | 1012.5 |
| 20260506062501 | 66 | 179 | 4.0 | 8.0 | 0.00 | 0.00 | 0.00 | 77 | 1013.0 |
| 20260506062003 | 66 | 197 | 4.0 | 8.0 | 0.00 | 0.00 | 0.00 | 77 | 1013.0 |
| 20260506061506 | 66 | 207 | 2.0 | 9.0 | 0.00 | 0.00 | 0.00 | 76 | 1013.1 |
| 20260506061003 | 66 | 219 | 3.0 | 9.0 | 0.00 | 0.00 | 0.00 | 76 | 1013.1 |
| 20260506060502 | 66 | 217 | 4.0 | 12.0 | 0.00 | 0.00 | 0.00 | 76 | 1013.2 |
| 20260506051002 | 67 | 200 | 5.0 | 11.0 | 0.00 | 0.00 | 0.00 | 73 | 1013.2 |
| 20260506050502 | 67 | 192 | 6.0 | 11.0 | 0.00 | 0.00 | 0.00 | 72 | 1013.1 |
| 20260506045002 | 68 | 185 | 5.0 | 12.0 | 0.00 | 0.00 | 0.00 | 71 | 1012.9 |
| 20260506044515 | 68 | 236 | 4.0 | 12.0 | 0.00 | 0.00 | 0.00 | 71 | 1013.0 |
| 20260506044004 | 68 | 213 | 7.0 | 12.0 | 0.00 | 0.00 | 0.00 | 71 | 1013.0 |
| 20260506043505 | 68 | 204 | 6.0 | 15.0 | 0.00 | 0.00 | 0.00 | 70 | 1013.2 |
| 20260506043016 | 68 | 190 | 7.0 | 15.0 | 0.00 | 0.00 | 0.00 | 70 | 1013.2 |
| 20260506042504 | 68 | 244 | 9.0 | 15.0 | 0.00 | 0.00 | 0.00 | 71 | 1013.2 |
| 20260506042008 | 68 | 231 | 5.0 | 14.0 | 0.00 | 0.00 | 0.00 | 71 | 1013.2 |
| 20260506041515 | 68 | 231 | 4.0 | 11.0 | 0.00 | 0.00 | 0.00 | 71 | 1013.1 |
| 20260506041003 | 68 | 168 | 4.0 | 10.0 | 0.00 | 0.00 | 0.00 | 71 | 1013.2 |
| 20260506040502 | 68 | 225 | 4.0 | 10.0 | 0.00 | 0.00 | 0.00 | 71 | 1013.3 |
| 20260506040006 | 69 | 208 | 4.0 | 10.0 | 0.00 | 0.00 | 0.00 | 71 | 1013.4 |
| 20260506035503 | 69 | 223 | 4.0 | 10.0 | 0.00 | 0.00 | 0.00 | 71 | 1013.3 |
| 20260506035003 | 69 | 189 | 4.0 | 10.0 | 0.00 | 0.00 | 0.00 | 70 | 1013.3 |
| 20260506034511 | 69 | 199 | 5.0 | 15.0 | 0.00 | 0.00 | 0.00 | 70 | 1013.3 |
| 20260506034004 | 69 | 150 | 6.0 | 15.0 | 0.00 | 0.00 | 0.00 | 70 | 1013.4 |
| 20260506033506 | 69 | 199 | 6.0 | 14.0 | 0.00 | 0.00 | 0.00 | 69 | 1013.3 |
| 20260506033008 | 70 | 194 | 8.0 | 14.0 | 0.00 | 0.00 | 0.00 | 69 | 1013.2 |
| 20260506032507 | 70 | 223 | 5.0 | 13.0 | 0.00 | 0.00 | 0.00 | 69 | 1013.4 |
| 20260506032010 | 70 | 213 | 7.0 | 13.0 | 0.00 | 0.00 | 0.00 | 69 | 1013.4 |
| 20260506031520 | 70 | 213 | 6.0 | 14.0 | 0.00 | 0.00 | 0.00 | 69 | 1013.2 |
| 20260506031007 | 70 | 201 | 5.0 | 14.0 | 0.00 | 0.00 | 0.00 | 68 | 1013.0 |
| 20260506030506 | 70 | 197 | 5.0 | 11.0 | 0.00 | 0.00 | 0.00 | 68 | 1012.9 |
| 20260506030022 | 70 | 228 | 5.0 | 14.0 | 0.00 | 0.00 | 0.00 | 68 | 1012.9 |
| 20260506025506 | 70 | 207 | 5.0 | 14.0 | 0.00 | 0.00 | 0.00 | 68 | 1012.8 |
| 20260506025005 | 70 | 211 | 5.0 | 13.0 | 0.00 | 0.00 | 0.00 | 68 | 1012.8 |
| 20260506024506 | 70 | 194 | 4.0 | 13.0 | 0.00 | 0.00 | 0.00 | 67 | 1012.9 |
| 20260506024004 | 71 | 199 | 5.0 | 16.0 | 0.00 | 0.00 | 0.00 | 66 | 1012.8 |
| 20260506023504 | 71 | 209 | 7.0 | 16.0 | 0.00 | 0.00 | 0.00 | 66 | 1012.8 |
| 20260506023012 | 71 | 199 | 4.0 | 13.0 | 0.00 | 0.00 | 0.00 | 66 | 1012.8 |
| 20260506022503 | 71 | 171 | 6.0 | 13.0 | 0.00 | 0.00 | 0.00 | 66 | 1012.8 |
| 20260506022003 | 71 | 193 | 5.0 | 13.0 | 0.00 | 0.00 | 0.00 | 65 | 1012.8 |
| 20260506021530 | 71 | 186 | 5.0 | 12.0 | 0.00 | 0.00 | 0.00 | 65 | 1012.8 |
| 20260506021004 | 71 | 200 | 6.0 | 12.0 | 0.00 | 0.00 | 0.00 | 65 | 1013.0 |
| 20260506020503 | 71 | 188 | 5.0 | 10.0 | 0.00 | 0.00 | 0.00 | 65 | 1012.7 |
| 20260506020004 | 71 | 204 | 3.0 | 10.0 | 0.00 | 0.00 | 0.00 | 64 | 1012.5 |
| 20260506015503 | 71 | 227 | 3.0 | 10.0 | 0.00 | 0.00 | 0.00 | 64 | 1012.3 |
| 20260506015004 | 71 | 215 | 4.0 | 8.0 | 0.00 | 0.00 | 0.00 | 63 | 1012.2 |
| 20260506014505 | 71 | 207 | 2.0 | 10.0 | 0.00 | 0.00 | 0.00 | 62 | 1012.3 |
| 20260506014004 | 72 | 205 | 3.0 | 10.0 | 0.00 | 0.00 | 0.00 | 62 | 1012.4 |
| 20260506013503 | 72 | 222 | 4.0 | 9.0 | 0.00 | 0.00 | 0.00 | 62 | 1012.5 |
| 20260506013008 | 72 | 204 | 3.0 | 6.0 | 0.00 | 0.00 | 0.00 | 62 | 1012.5 |
| 20260506012504 | 72 | 186 | 2.0 | 7.0 | 0.00 | 0.00 | 0.00 | 61 | 1012.4 |
| 20260506012005 | 72 | 173 | 1.0 | 7.0 | 0.00 | 0.00 | 0.00 | 61 | 1012.4 |
| 20260506011506 | 72 | 141 | 2.0 | 7.0 | 0.00 | 0.00 | 0.00 | 60 | 1012.4 |
| 20260506011007 | 72 | 200 | 2.0 | 8.0 | 0.00 | 0.00 | 0.00 | 60 | 1012.4 |
| 20260506010504 | 73 | 205 | 4.0 | 8.0 | 0.00 | 0.00 | 0.00 | 59 | 1012.4 |
| 20260506010004 | 73 | 180 | 2.0 | 7.0 | 0.00 | 0.00 | 0.00 | 59 | 1012.3 |
| 20260506005507 | 73 | 167 | 2.0 | 7.0 | 0.00 | 0.00 | 0.00 | 59 | 1012.4 |
| 20260506005004 | 73 | 178 | 3.0 | 7.0 | 0.00 | 0.00 | 0.00 | 59 | 1012.3 |
| 20260506004505 | 72 | 167 | 2.0 | 6.0 | 0.00 | 0.00 | 0.00 | 58 | 1012.1 |
| 20260506004006 | 73 | 210 | 2.0 | 8.0 | 0.00 | 0.00 | 0.00 | 59 | 1012.1 |
| 20260506003507 | 73 | 199 | 2.0 | 8.0 | 0.00 | 0.00 | 0.00 | 58 | 1012.1 |
| 20260506003004 | 73 | 207 | 3.0 | 7.0 | 0.00 | 0.00 | 0.00 | 58 | 1012.0 |
| 20260506002506 | 73 | 224 | 3.0 | 7.0 | 0.00 | 0.00 | 0.00 | 57 | 1012.0 |
| 20260506002003 | 73 | 218 | 2.0 | 8.0 | 0.00 | 0.00 | 0.00 | 57 | 1012.0 |
| 20260506001508 | 73 | 200 | 3.0 | 8.0 | 0.00 | 0.00 | 0.00 | 58 | 1012.2 |
| 20260506001004 | 73 | 176 | 2.0 | 7.0 | 0.00 | 0.00 | 0.00 | 57 | 1012.3 |
| 20260506000504 | 73 | 201 | 1.0 | 6.0 | 0.00 | 0.00 | 0.00 | 57 | 1012.3 |
| 20260506000015 | 74 | 213 | 2.0 | 6.0 | 0.00 | 0.00 | 0.00 | 57 | 1012.3 |
| 20260505235505 | 74 | 221 | 2.0 | 5.0 | 0.00 | 0.00 | 0.00 | 56 | 1012.2 |
| 20260505235008 | 74 | 228 | 1.0 | 6.0 | 0.00 | 0.00 | 0.00 | 55 | 1012.0 |
| 20260505234514 | 75 | 194 | 2.0 | 6.0 | 0.00 | 0.00 | 0.00 | 55 | 1012.1 |
| 20260505234004 | 75 | 185 | 1.0 | 5.0 | 0.00 | 0.00 | 0.00 | 53 | 1012.1 |
| 20260505233510 | 75 | 159 | 2.0 | 5.0 | 0.00 | 0.00 | 0.00 | 54 | 1012.4 |
| 20260505233004 | 75 | 201 | 1.0 | 5.0 | 0.00 | 0.00 | 0.00 | 54 | 1012.6 |
| 20260505232503 | 75 | 205 | 1.0 | 6.0 | 0.00 | 0.00 | 0.00 | 51 | 1012.5 |
| 20260505232006 | 75 | 215 | 3.0 | 8.0 | 0.00 | 0.00 | 0.00 | 51 | 1012.7 |
| 20260505231512 | 75 | 198 | 1.0 | 8.0 | 0.00 | 0.00 | 0.00 | 52 | 1012.7 |
| 20260505231008 | 75 | 231 | 1.0 | 5.0 | 0.00 | 0.00 | 0.00 | 51 | 1012.6 |
| 20260505230504 | 75 | 199 | 2.0 | 7.0 | 0.00 | 0.00 | 0.00 | 50 | 1012.5 |
| 20260505230015 | 75 | 163 | 2.0 | 8.0 | 0.00 | 0.00 | 0.00 | 51 | 1012.5 |
| 20260505225505 | 75 | 196 | 2.0 | 8.0 | 0.00 | 0.00 | 0.00 | 50 | 1012.7 |
| 20260505225005 | 75 | 196 | 4.0 | 8.0 | 0.00 | 0.00 | 0.00 | 48 | 1012.8 |
| 20260505224517 | 75 | 189 | 2.0 | 7.0 | 0.00 | 0.00 | 0.00 | 48 | 1012.8 |
| 20260505224009 | 75 | 169 | 3.0 | 7.0 | 0.00 | 0.00 | 0.00 | 48 | 1012.6 |
| 20260505223505 | 75 | 160 | 2.0 | 8.0 | 0.00 | 0.00 | 0.00 | 49 | 1012.7 |
| 20260505223021 | 76 | 203 | 3.0 | 7.0 | 0.00 | 0.00 | 0.00 | 48 | 1012.8 |
| 20260505222507 | 76 | 193 | 4.0 | 11.0 | 0.00 | 0.00 | 0.00 | 48 | 1012.8 |
| 20260505222004 | 76 | 204 | 3.0 | 10.0 | 0.00 | 0.00 | 0.00 | 46 | 1012.8 |
| 20260505221507 | 76 | 188 | 4.0 | 12.0 | 0.00 | 0.00 | 0.00 | 45 | 1012.7 |
| 20260505221003 | 77 | 240 | 4.0 | 12.0 | 0.00 | 0.00 | 0.00 | 45 | 1012.8 |
| 20260505220504 | 77 | 216 | 6.0 | 12.0 | 0.00 | 0.00 | 0.00 | 43 | 1012.8 |
| 20260505220009 | 77 | 213 | 6.0 | 10.0 | 0.00 | 0.00 | 0.00 | 45 | 1012.8 |
| 20260505215508 | 77 | 200 | 3.0 | 12.0 | 0.00 | 0.00 | 0.00 | 47 | 1012.8 |
| 20260505215007 | 77 | 200 | 6.0 | 12.0 | 0.00 | 0.00 | 0.00 | 45 | 1013.0 |
| 20260505214516 | 77 | 220 | 6.0 | 10.0 | 0.00 | 0.00 | 0.00 | 45 | 1012.9 |
| 20260505214008 | 77 | 201 | 2.0 | 15.0 | 0.00 | 0.00 | 0.00 | 46 | 1012.8 |
| 20260505213506 | 77 | 182 | 4.0 | 19.0 | 0.00 | 0.00 | 0.00 | 45 | 1012.9 |
| 20260505213017 | 78 | 250 | 11.0 | 19.0 | 0.00 | 0.00 | 0.00 | 43 | 1012.7 |
| 20260505212510 | 79 | 194 | 4.0 | 14.0 | 0.00 | 0.00 | 0.00 | 43 | 1012.7 |
| 20260505212010 | 79 | 182 | 4.0 | 14.0 | 0.00 | 0.00 | 0.00 | 42 | 1012.7 |
| 20260505211512 | 79 | 261 | 4.0 | 15.0 | 0.00 | 0.00 | 0.00 | 45 | 1012.5 |
| 20260505211007 | 79 | 196 | 7.0 | 15.0 | 0.00 | 0.00 | 0.00 | 42 | 1012.6 |
| 20260505210506 | 79 | 227 | 9.0 | 14.0 | 0.00 | 0.00 | 0.00 | 42 | 1012.8 |
| 20260505210012 | 79 | 274 | 4.0 | 13.0 | 0.00 | 0.00 | 0.00 | 47 | 1012.6 |
| 20260505205509 | 79 | 208 | 6.0 | 13.0 | 0.00 | 0.00 | 0.00 | 45 | 1012.8 |
| 20260505205008 | 79 | 175 | 5.0 | 14.0 | 0.00 | 0.00 | 0.00 | 43 | 1012.7 |
| 20260505204515 | 79 | 213 | 7.0 | 15.0 | 0.00 | 0.00 | 0.00 | 43 | 1012.9 |
| 20260505204005 | 79 | 119 | 6.0 | 12.0 | 0.00 | 0.00 | 0.00 | 46 | 1012.8 |
| 20260505203508 | 79 | 146 | 2.0 | 7.0 | 0.00 | 0.00 | 0.00 | 46 | 1012.9 |
| 20260505203028 | 79 | 227 | 3.0 | 12.0 | 0.00 | 0.00 | 0.00 | 46 | 1012.9 |
| 20260505202506 | 78 | 168 | 5.0 | 12.0 | 0.00 | 0.00 | 0.00 | 45 | 1013.2 |
| 20260505202006 | 78 | 209 | 4.0 | 10.0 | 0.00 | 0.00 | 0.00 | 48 | 1013.2 |
| 20260505201512 | 78 | 117 | 4.0 | 18.0 | 0.00 | 0.00 | 0.00 | 48 | 1013.3 |
| 20260505201003 | 78 | 221 | 5.0 | 18.0 | 0.00 | 0.00 | 0.00 | 48 | 1013.3 |
| 20260505200503 | 78 | 217 | 7.0 | 13.0 | 0.00 | 0.00 | 0.00 | 45 | 1013.3 |
| 20260505200007 | 78 | 225 | 6.0 | 18.0 | 0.00 | 0.00 | 0.00 | 46 | 1013.4 |
| 20260505195502 | 78 | 213 | 7.0 | 18.0 | 0.00 | 0.00 | 0.00 | 47 | 1013.4 |
| 20260505195002 | 77 | 170 | 6.0 | 12.0 | 0.00 | 0.00 | 0.00 | 49 | 1013.6 |
| 20260505194512 | 76 | 184 | 4.0 | 16.0 | 0.00 | 0.00 | 0.00 | 50 | 1013.6 |
| 20260505194007 | 77 | 245 | 10.0 | 16.0 | 0.00 | 0.00 | 0.00 | 46 | 1013.7 |
| 20260505193503 | 77 | 214 | 6.0 | 13.0 | 0.00 | 0.00 | 0.00 | 48 | 1013.6 |
| 20260505193020 | 77 | 162 | 4.0 | 13.0 | 0.00 | 0.00 | 0.00 | 48 | 1013.9 |
| 20260505192507 | 77 | 170 | 4.0 | 11.0 | 0.00 | 0.00 | 0.00 | 49 | 1014.0 |
| 20260505192007 | 76 | 127 | 5.0 | 15.0 | 0.00 | 0.00 | 0.00 | 49 | 1013.9 |
| 20260505191516 | 76 | 215 | 7.0 | 15.0 | 0.00 | 0.00 | 0.00 | 48 | 1014.0 |
| 20260505191004 | 77 | 263 | 5.0 | 14.0 | 0.00 | 0.00 | 0.00 | 49 | 1013.9 |
| 20260505190510 | 77 | 235 | 8.0 | 14.0 | 0.00 | 0.00 | 0.00 | 49 | 1014.2 |
| 20260505190010 | 76 | 154 | 5.0 | 12.0 | 0.00 | 0.00 | 0.00 | 54 | 1014.2 |
| 20260505185505 | 76 | 82 | 8.0 | 12.0 | 0.00 | 0.00 | 0.00 | 51 | 1014.3 |
| 20260505185003 | 76 | 260 | 4.0 | 12.0 | 0.00 | 0.00 | 0.00 | 51 | 1014.2 |
| 20260505184508 | 76 | 217 | 6.0 | 12.0 | 0.00 | 0.00 | 0.00 | 52 | 1014.3 |
| 20260505184006 | 76 | 242 | 7.0 | 11.0 | 0.00 | 0.00 | 0.00 | 52 | 1014.4 |
| 20260505183504 | 76 | 165 | 5.0 | 16.0 | 0.00 | 0.00 | 0.00 | 53 | 1014.4 |
| 20260505183011 | 76 | 202 | 6.0 | 16.0 | 0.00 | 0.00 | 0.00 | 53 | 1014.4 |
| 20260505182507 | 76 | 190 | 5.0 | 11.0 | 0.00 | 0.00 | 0.00 | 51 | 1014.4 |
| 20260505182008 | 75 | 206 | 2.0 | 14.0 | 0.00 | 0.00 | 0.00 | 52 | 1014.4 |
| 20260505181521 | 75 | 205 | 8.0 | 14.0 | 0.00 | 0.00 | 0.00 | 49 | 1014.5 |
| 20260505181009 | 75 | 211 | 6.0 | 14.0 | 0.00 | 0.00 | 0.00 | 52 | 1014.5 |
| 20260505180503 | 75 | 142 | 6.0 | 11.0 | 0.00 | 0.00 | 0.00 | 54 | 1014.7 |
| 20260505180023 | 74 | 171 | 3.0 | 11.0 | 0.00 | 0.00 | 0.00 | 55 | 1014.8 |
| 20260505175512 | 74 | 272 | 6.0 | 11.0 | 0.00 | 0.00 | 0.00 | 56 | 1014.9 |
| 20260505175003 | 74 | 150 | 3.0 | 11.0 | 0.00 | 0.00 | 0.00 | 54 | 1015.0 |
| 20260505174509 | 73 | 196 | 4.0 | 18.0 | 0.00 | 0.00 | 0.00 | 55 | 1015.1 |
| 20260505174004 | 73 | 233 | 9.0 | 18.0 | 0.00 | 0.00 | 0.00 | 55 | 1015.1 |
| 20260505173505 | 73 | 233 | 5.0 | 14.0 | 0.00 | 0.00 | 0.00 | 55 | 1015.3 |
| 20260505173012 | 73 | 235 | 7.0 | 17.0 | 0.00 | 0.00 | 0.00 | 55 | 1015.3 |
| 20260505172504 | 72 | 171 | 3.0 | 17.0 | 0.00 | 0.00 | 0.00 | 55 | 1015.2 |
| 20260505172005 | 72 | 215 | 8.0 | 14.0 | 0.00 | 0.00 | 0.00 | 57 | 1015.5 |
| 20260505171505 | 72 | 253 | 6.0 | 11.0 | 0.00 | 0.00 | 0.00 | 57 | 1015.6 |
| 20260505171002 | 71 | 224 | 2.0 | 11.0 | 0.00 | 0.00 | 0.00 | 61 | 1015.6 |
| 20260505170503 | 72 | 256 | 4.0 | 11.0 | 0.00 | 0.00 | 0.00 | 58 | 1015.6 |
| 20260505170002 | 73 | 250 | 7.0 | 13.0 | 0.00 | 0.00 | 0.00 | 56 | 1015.7 |
| 20260505165503 | 72 | 199 | 3.0 | 13.0 | 0.00 | 0.00 | 0.00 | 61 | 1015.6 |
| 20260505165003 | 72 | 295 | 5.0 | 13.0 | 0.00 | 0.00 | 0.00 | 60 | 1015.6 |
| 20260505164503 | 71 | 203 | 4.0 | 9.0 | 0.00 | 0.00 | 0.00 | 57 | 1015.6 |
| 20260505164003 | 71 | 226 | 6.0 | 12.0 | 0.00 | 0.00 | 0.00 | 57 | 1015.6 |
| 20260505163503 | 71 | 250 | 10.0 | 12.0 | 0.00 | 0.00 | 0.00 | 59 | 1015.6 |
| 20260505163010 | 71 | 211 | 4.0 | 9.0 | 0.00 | 0.00 | 0.00 | 55 | 1015.6 |
| 20260505162504 | 71 | 144 | 4.0 | 9.0 | 0.00 | 0.00 | 0.00 | 61 | 1015.5 |
| 20260505162003 | 70 | 205 | 5.0 | 9.0 | 0.00 | 0.00 | 0.00 | 56 | 1015.5 |
| 20260505161506 | 70 | 236 | 4.0 | 9.0 | 0.00 | 0.00 | 0.00 | 56 | 1015.6 |
| 20260505161003 | 70 | 243 | 5.0 | 13.0 | 0.00 | 0.00 | 0.00 | 58 | 1015.6 |
| 20260505160503 | 70 | 288 | 7.0 | 14.0 | 0.00 | 0.00 | 0.00 | 58 | 1015.7 |
| 20260505153003 | 69 | 205 | 4.0 | 14.0 | 0.00 | 0.00 | 0.00 | 57 | 1015.9 |
| 20260505152504 | 69 | 221 | 6.0 | 13.0 | 0.00 | 0.00 | 0.00 | 56 | 1015.9 |
| 20260505152005 | 69 | 173 | 5.0 | 13.0 | 0.00 | 0.00 | 0.00 | 59 | 1015.9 |
| 20260505151503 | 69 | 259 | 4.0 | 11.0 | 0.00 | 0.00 | 0.00 | 58 | 1015.9 |
| 20260505151004 | 69 | 201 | 2.0 | 11.0 | 0.00 | 0.00 | 0.00 | 61 | 1016.1 |
| 20260505150504 | 68 | 242 | 3.0 | 9.0 | 0.00 | 0.00 | 0.00 | 60 | 1016.1 |
| 20260505140502 | 65 | 184 | 4.0 | 10.0 | 0.00 | 0.00 | 0.00 | 67 | 1015.8 |
| 20260505125002 | 60 | 178 | 1.0 | 6.0 | 0.00 | 0.00 | 0.00 | 73 | 1014.9 |
| 20260505124503 | 60 | 182 | 2.0 | 6.0 | 0.00 | 0.00 | 0.00 | 74 | 1014.7 |
| 20260505124005 | 59 | 142 | 2.0 | 5.0 | 0.00 | 0.00 | 0.00 | 75 | 1014.6 |
| 20260505123507 | 59 | 144 | 2.0 | 5.0 | 0.00 | 0.00 | 0.00 | 76 | 1014.6 |
| 20260505123003 | 58 | 150 | 2.0 | 4.0 | 0.00 | 0.00 | 0.00 | 78 | 1014.5 |
| 20260505122504 | 57 | 170 | 1.0 | 2.0 | 0.00 | 0.00 | 0.00 | 81 | 1014.4 |
| 20260505122003 | 56 | 166 | 1.0 | 2.0 | 0.00 | 0.00 | 0.00 | 83 | 1014.3 |
| 20260505121508 | 55 | 185 | 0.0 | 2.0 | 0.00 | 0.00 | 0.00 | 85 | 1014.3 |
| 20260505121003 | 54 | 185 | 0.0 | 2.0 | 0.00 | 0.00 | 0.00 | 87 | 1014.3 |
| 20260505120505 | 53 | 185 | 0.0 | 3.0 | 0.00 | 0.00 | 0.00 | 89 | 1014.3 |
| 20260505120011 | 51 | 211 | 1.0 | 3.0 | 0.00 | 0.00 | 0.00 | 89 | 1014.3 |
| 20260505115504 | 51 | 204 | 1.0 | 3.0 | 0.00 | 0.00 | 0.00 | 88 | 1014.3 |
| 20260505115002 | 50 | 211 | 1.0 | 3.0 | 0.00 | 0.00 | 0.00 | 88 | 1014.2 |
| 20260505114514 | 50 | 217 | 1.0 | 3.0 | 0.00 | 0.00 | 0.00 | 88 | 1014.0 |
| 20260505114004 | 49 | 178 | 0.0 | 2.0 | 0.00 | 0.00 | 0.00 | 88 | 1014.0 |
| 20260505113501 | 49 | 178 | 1.0 | 2.0 | 0.00 | 0.00 | 0.00 | 88 | 1014.1 |
| 20260505113012 | 49 | 178 | 1.0 | 1.0 | 0.00 | 0.00 | 0.00 | 87 | 1014.0 |
| 20260505112503 | 49 | 178 | 1.0 | 1.0 | 0.00 | 0.00 | 0.00 | 87 | 1013.9 |
| 20260505112005 | 49 | 178 | 0.0 | 1.0 | 0.00 | 0.00 | 0.00 | 87 | 1013.8 |
| 20260505111507 | 49 | 178 | 0.0 | 1.0 | 0.00 | 0.00 | 0.00 | 87 | 1013.7 |
| 20260505111005 | 48 | 178 | 0.0 | 1.0 | 0.00 | 0.00 | 0.00 | 86 | 1013.5 |
| 20260505110505 | 49 | 178 | 0.0 | 1.0 | 0.00 | 0.00 | 0.00 | 86 | 1013.6 |
| 20260505102005 | 49 | 215 | 1.0 | 3.0 | 0.00 | 0.00 | 0.00 | 85 | 1013.4 |
| 20260505101504 | 49 | 205 | 0.0 | 2.0 | 0.00 | 0.00 | 0.00 | 85 | 1013.3 |
| 20260505101004 | 49 | 200 | 1.0 | 2.0 | 0.00 | 0.00 | 0.00 | 85 | 1013.4 |
| 20260505100503 | 49 | 217 | 1.0 | 2.0 | 0.00 | 0.00 | 0.00 | 85 | 1013.5 |
| 20260505100004 | 49 | 219 | 0.0 | 2.0 | 0.00 | 0.00 | 0.00 | 84 | 1013.6 |
| 20260505095507 | 50 | 219 | 0.0 | 2.0 | 0.00 | 0.00 | 0.00 | 84 | 1013.7 |
| 20260505095003 | 50 | 219 | 1.0 | 2.0 | 0.00 | 0.00 | 0.00 | 84 | 1013.7 |
| 20260505094507 | 50 | 206 | 0.0 | 3.0 | 0.00 | 0.00 | 0.00 | 84 | 1013.8 |
| 20260505094002 | 50 | 199 | 2.0 | 3.0 | 0.00 | 0.00 | 0.00 | 83 | 1014.0 |
| 20260505093507 | 50 | 217 | 1.0 | 2.0 | 0.00 | 0.00 | 0.00 | 83 | 1013.9 |
| 20260505093025 | 50 | 217 | 0.0 | 2.0 | 0.00 | 0.00 | 0.00 | 83 | 1013.8 |
| 20260505092504 | 50 | 217 | 1.0 | 1.0 | 0.00 | 0.00 | 0.00 | 83 | 1013.9 |
| 20260505092009 | 51 | 217 | 0.0 | 2.0 | 0.00 | 0.00 | 0.00 | 82 | 1014.1 |
| 20260505091506 | 51 | 217 | 0.0 | 2.0 | 0.00 | 0.00 | 0.00 | 82 | 1014.0 |
| 20260505091011 | 51 | 217 | 1.0 | 2.0 | 0.00 | 0.00 | 0.00 | 81 | 1014.0 |
| 20260505090504 | 51 | 217 | 0.0 | 1.0 | 0.00 | 0.00 | 0.00 | 81 | 1014.0 |
| 20260505090007 | 51 | 217 | 1.0 | 2.0 | 0.00 | 0.00 | 0.00 | 81 | 1014.2 |
| 20260505085504 | 52 | 217 | 0.0 | 3.0 | 0.00 | 0.00 | 0.00 | 81 | 1014.2 |
| 20260505085004 | 52 | 217 | 1.0 | 3.0 | 0.00 | 0.00 | 0.00 | 81 | 1014.2 |
| 20260505084506 | 52 | 227 | 0.0 | 2.0 | 0.00 | 0.00 | 0.00 | 81 | 1014.2 |
| 20260505084004 | 52 | 207 | 1.0 | 4.0 | 0.00 | 0.00 | 0.00 | 80 | 1014.3 |
| 20260505083504 | 52 | 207 | 1.0 | 4.0 | 0.00 | 0.00 | 0.00 | 80 | 1014.3 |
| 20260505083012 | 52 | 217 | 1.0 | 3.0 | 0.00 | 0.00 | 0.00 | 80 | 1014.3 |
| 20260505082508 | 52 | 205 | 1.0 | 3.0 | 0.00 | 0.00 | 0.00 | 79 | 1014.3 |
| 20260505082004 | 52 | 218 | 2.0 | 3.0 | 0.00 | 0.00 | 0.00 | 79 | 1014.3 |
| 20260505081527 | 53 | 205 | 2.0 | 2.0 | 0.00 | 0.00 | 0.00 | 79 | 1014.2 |
| 20260505081007 | 53 | 220 | 1.0 | 2.0 | 0.00 | 0.00 | 0.00 | 79 | 1014.3 |
| 20260505080509 | 53 | 255 | 1.0 | 3.0 | 0.00 | 0.00 | 0.00 | 78 | 1014.4 |
| 20260505080018 | 53 | 222 | 1.0 | 3.0 | 0.00 | 0.00 | 0.00 | 78 | 1014.3 |
| 20260505075503 | 53 | 221 | 1.0 | 3.0 | 0.00 | 0.00 | 0.00 | 77 | 1014.2 |
| 20260505075008 | 54 | 219 | 1.0 | 4.0 | 0.00 | 0.00 | 0.00 | 77 | 1014.4 |
| 20260505074507 | 54 | 234 | 2.0 | 4.0 | 0.00 | 0.00 | 0.00 | 76 | 1014.4 |